Year,Month,Day,Hour,Minute,Value (Times are PST for temperature in C)
2015,02,07,10,51,10.10
2015,02,07,10,52,10.10
2015,02,07,10,53,10.10
2015,02,07,10,54,10.10
2015,02,07,10,55,10.20
2015,02,07,10,56,10.20
2015,02,07,10,57,10.20
2015,02,07,10,58,10.20
2015,02,07,10,59,10.20
2015,02,07,11,00,10.20
2015,02,07,11,01,10.20
2015,02,07,11,02,10.20
2015,02,07,11,03,10.20
2015,02,07,11,04,10.20
2015,02,07,11,05,10.20
2015,02,07,11,06,10.20
2015,02,07,11,07,10.30
2015,02,07,11,08,10.30
2015,02,07,11,09,10.30
2015,02,07,11,10,10.30
2015,02,07,11,11,10.30
2015,02,07,11,12,10.30
2015,02,07,11,13,10.30
2015,02,07,11,14,10.30
2015,02,07,11,15,10.30
2015,02,07,11,16,10.40
2015,02,07,11,17,10.40
2015,02,07,11,18,10.40
2015,02,07,11,19,10.40
2015,02,07,11,20,10.40
2015,02,07,11,21,10.50
2015,02,07,11,22,10.50
2015,02,07,11,23,10.50
2015,02,07,11,24,10.50
2015,02,07,11,25,10.50
2015,02,07,11,26,10.50
2015,02,07,11,27,10.60
2015,02,07,11,28,10.60
2015,02,07,11,29,10.60
2015,02,07,11,30,10.60
2015,02,07,11,31,10.60
2015,02,07,11,32,10.60
2015,02,07,11,33,10.60
2015,02,07,11,34,10.60
2015,02,07,11,35,10.60
2015,02,07,11,36,10.60
2015,02,07,11,37,10.60
2015,02,07,11,38,10.60
2015,02,07,11,39,10.60
2015,02,07,11,40,10.60
2015,02,07,11,41,10.60
2015,02,07,11,42,10.60
2015,02,07,11,43,10.60
2015,02,07,11,44,10.60
2015,02,07,11,45,10.60
2015,02,07,11,46,10.60
2015,02,07,11,47,10.60
2015,02,07,11,48,10.60
2015,02,07,11,49,10.60
2015,02,07,11,50,10.60
2015,02,07,11,51,10.60
2015,02,07,11,52,10.60
2015,02,07,11,53,10.60
2015,02,07,11,54,10.60
2015,02,07,11,55,10.60
2015,02,07,11,56,10.60
2015,02,07,11,57,10.60
2015,02,07,11,58,10.60
2015,02,07,11,59,10.60
2015,02,07,12,00,10.60
2015,02,07,12,01,10.60
2015,02,07,12,02,10.70
2015,02,07,12,03,10.70
2015,02,07,12,04,10.70
2015,02,07,12,05,10.70
2015,02,07,12,06,10.70
2015,02,07,12,07,10.70
2015,02,07,12,08,10.70
2015,02,07,12,09,10.70
2015,02,07,12,10,10.70
2015,02,07,12,11,10.70
2015,02,07,12,12,10.80
2015,02,07,12,13,10.80
2015,02,07,12,14,10.80
2015,02,07,12,15,10.80
2015,02,07,12,16,10.80
2015,02,07,12,17,10.80
2015,02,07,12,18,10.90
2015,02,07,12,19,10.90
2015,02,07,12,20,10.90
2015,02,07,12,21,10.90
2015,02,07,12,22,10.90
2015,02,07,12,23,10.90
2015,02,07,12,24,10.90
2015,02,07,12,25,10.90
2015,02,07,12,26,11.00
2015,02,07,12,27,11.00
2015,02,07,12,28,11.00
2015,02,07,12,29,11.00
2015,02,07,12,30,11.00
2015,02,07,12,31,11.10
2015,02,07,12,32,11.10
2015,02,07,12,33,11.10
2015,02,07,12,34,11.10
2015,02,07,12,35,11.10
2015,02,07,12,36,11.10
2015,02,07,12,37,11.10
2015,02,07,12,38,11.10
2015,02,07,12,39,11.20
2015,02,07,12,40,11.20
2015,02,07,12,41,11.20
2015,02,07,12,42,11.20
2015,02,07,12,43,11.30
2015,02,07,12,44,11.30
2015,02,07,12,45,11.30
2015,02,07,12,46,11.30
2015,02,07,12,47,11.30
2015,02,07,12,48,11.40
2015,02,07,12,49,11.40
2015,02,07,12,50,11.40
2015,02,07,12,51,11.40
2015,02,07,12,52,11.40
2015,02,07,12,53,11.40
2015,02,07,12,54,11.40
2015,02,07,12,55,11.50
2015,02,07,12,56,11.50
2015,02,07,12,57,11.50
2015,02,07,12,58,11.60
2015,02,07,12,59,11.60
2015,02,07,13,00,11.60
2015,02,07,13,01,11.60
2015,02,07,13,02,11.60
2015,02,07,13,03,11.70
2015,02,07,13,04,11.70
2015,02,07,13,05,11.80
2015,02,07,13,06,11.90
2015,02,07,13,07,11.90
2015,02,07,13,08,12.00
2015,02,07,13,09,12.00
2015,02,07,13,10,12.00
2015,02,07,13,11,12.10
2015,02,07,13,12,12.10
2015,02,07,13,13,12.10
2015,02,07,13,14,12.20
2015,02,07,13,15,12.20
2015,02,07,13,16,12.30
2015,02,07,13,17,12.30
2015,02,07,13,18,12.30
2015,02,07,13,19,12.30
2015,02,07,13,20,12.30
2015,02,07,13,21,12.30
2015,02,07,13,22,12.30
2015,02,07,13,23,12.30
2015,02,07,13,24,12.30
2015,02,07,13,25,12.30
2015,02,07,13,26,12.30
2015,02,07,13,27,12.30
2015,02,07,13,28,12.30
2015,02,07,13,29,12.30
2015,02,07,13,30,12.40
2015,02,07,13,31,12.40
2015,02,07,13,32,12.40
2015,02,07,13,33,12.40
2015,02,07,13,34,12.40
2015,02,07,13,35,12.40
2015,02,07,13,36,12.40
2015,02,07,13,37,12.50
2015,02,07,13,38,12.50
2015,02,07,13,39,12.60
2015,02,07,13,40,12.60
2015,02,07,13,41,12.60
2015,02,07,13,42,12.70
2015,02,07,13,43,12.70
2015,02,07,13,44,12.70
2015,02,07,13,45,12.80
2015,02,07,13,46,12.80
2015,02,07,13,47,12.90
2015,02,07,13,48,12.90
2015,02,07,13,49,12.90
2015,02,07,13,50,12.90
2015,02,07,13,51,12.90
2015,02,07,13,52,12.90
2015,02,07,13,53,12.90
2015,02,07,13,54,13.00
2015,02,07,13,55,13.00
2015,02,07,13,56,13.10
2015,02,07,13,57,13.10
2015,02,07,13,58,13.10
2015,02,07,13,59,13.10
2015,02,07,14,00,13.20
2015,02,07,14,01,13.20
2015,02,07,14,02,13.20
2015,02,07,14,03,13.20
2015,02,07,14,04,13.20
2015,02,07,14,05,13.20
2015,02,07,14,06,13.30
2015,02,07,14,07,13.30
2015,02,07,14,08,13.30
2015,02,07,14,09,13.30
2015,02,07,14,10,13.30
2015,02,07,14,11,13.30
2015,02,07,14,12,13.30
2015,02,07,14,13,13.30
2015,02,07,14,14,13.30
2015,02,07,14,15,13.20
2015,02,07,14,16,13.20
2015,02,07,14,17,13.20
2015,02,07,14,18,13.20
2015,02,07,14,19,13.20
2015,02,07,14,20,13.20
2015,02,07,14,21,13.20
2015,02,07,14,22,13.20
2015,02,07,14,23,13.20
2015,02,07,14,24,13.20
2015,02,07,14,25,13.30
2015,02,07,14,26,13.30
2015,02,07,14,27,13.30
2015,02,07,14,28,13.30
2015,02,07,14,29,13.30
2015,02,07,14,30,13.30
2015,02,07,14,31,13.40
2015,02,07,14,32,13.40
2015,02,07,14,33,13.40
2015,02,07,14,34,13.50
2015,02,07,14,35,13.50
2015,02,07,14,36,13.60
2015,02,07,14,37,13.60
2015,02,07,14,38,13.60
2015,02,07,14,39,13.60
2015,02,07,14,40,13.60
2015,02,07,14,41,13.60
2015,02,07,14,42,13.70
2015,02,07,14,43,13.60
2015,02,07,14,44,13.60
2015,02,07,14,45,13.70
2015,02,07,14,46,13.70
2015,02,07,14,47,13.60
2015,02,07,14,48,13.60
2015,02,07,14,49,13.60
2015,02,07,14,50,13.60
2015,02,07,14,51,13.60
2015,02,07,14,52,13.60
2015,02,07,14,53,13.60
2015,02,07,14,54,13.60
2015,02,07,14,55,13.60
2015,02,07,14,56,13.70
2015,02,07,14,57,13.70
2015,02,07,14,58,13.70
2015,02,07,14,59,13.80
2015,02,07,15,00,13.80
2015,02,07,15,01,13.90
2015,02,07,15,02,13.90
2015,02,07,15,03,14.00
2015,02,07,15,04,14.10
2015,02,07,15,05,14.10
2015,02,07,15,06,14.20
2015,02,07,15,07,14.20
2015,02,07,15,08,14.20
2015,02,07,15,09,14.30
2015,02,07,15,10,14.30
2015,02,07,15,11,14.30
2015,02,07,15,12,14.30
2015,02,07,15,13,14.30
2015,02,07,15,14,14.40
2015,02,07,15,15,14.40
2015,02,07,15,16,14.40
2015,02,07,15,17,14.40
2015,02,07,15,18,14.40
2015,02,07,15,19,14.40
2015,02,07,15,20,14.30
2015,02,07,15,21,14.30
2015,02,07,15,22,14.30
2015,02,07,15,23,14.30
2015,02,07,15,24,14.30
2015,02,07,15,25,14.30
2015,02,07,15,26,14.20
2015,02,07,15,27,14.20
2015,02,07,15,28,14.20
2015,02,07,15,29,14.20
2015,02,07,15,30,14.20
2015,02,07,15,31,14.20
2015,02,07,15,32,14.20
2015,02,07,15,33,14.20
2015,02,07,15,34,14.20
2015,02,07,15,35,14.10
2015,02,07,15,36,14.10
2015,02,07,15,37,14.00
2015,02,07,15,38,14.00
2015,02,07,15,39,13.90
2015,02,07,15,40,13.90
2015,02,07,15,41,13.80
2015,02,07,15,42,13.80
2015,02,07,15,43,13.80
2015,02,07,15,44,13.80
2015,02,07,15,45,13.70
2015,02,07,15,46,13.70
2015,02,07,15,47,13.70
2015,02,07,15,48,13.70
2015,02,07,15,49,13.70
2015,02,07,15,50,13.60
2015,02,07,15,51,13.60
2015,02,07,15,52,13.60
2015,02,07,15,53,13.60
2015,02,07,15,54,13.60
2015,02,07,15,55,13.60
2015,02,07,15,56,13.60
2015,02,07,15,57,13.60
2015,02,07,15,58,13.60
2015,02,07,15,59,13.60
2015,02,07,16,00,13.50
2015,02,07,16,01,13.50
2015,02,07,16,02,13.50
2015,02,07,16,03,13.40
2015,02,07,16,04,13.20
2015,02,07,16,05,13.10
2015,02,07,16,06,12.90
2015,02,07,16,07,12.70
2015,02,07,16,08,12.60
2015,02,07,16,09,12.50
2015,02,07,16,10,12.40
2015,02,07,16,11,12.30
2015,02,07,16,12,12.30
2015,02,07,16,13,12.20
2015,02,07,16,14,12.10
2015,02,07,16,15,12.00
2015,02,07,16,16,12.00
2015,02,07,16,17,11.80
2015,02,07,16,18,11.80
2015,02,07,16,19,11.70
2015,02,07,16,20,11.70
2015,02,07,16,21,11.70
2015,02,07,16,22,11.60
2015,02,07,16,23,11.60
2015,02,07,16,24,11.60
2015,02,07,16,25,11.60
2015,02,07,16,26,11.50
2015,02,07,16,27,11.50
2015,02,07,16,28,11.50
2015,02,07,16,29,11.40
2015,02,07,16,30,11.40
2015,02,07,16,31,11.30
2015,02,07,16,32,11.30
2015,02,07,16,33,11.20
2015,02,07,16,34,11.20
2015,02,07,16,35,11.20
2015,02,07,16,36,11.10
2015,02,07,16,37,11.10
2015,02,07,16,38,11.10
2015,02,07,16,39,11.10
2015,02,07,16,40,11.00
2015,02,07,16,41,11.00
2015,02,07,16,42,11.00
2015,02,07,16,43,11.00
2015,02,07,16,44,10.90
2015,02,07,16,45,10.90
2015,02,07,16,46,10.90
2015,02,07,16,47,10.90
2015,02,07,16,48,10.90
2015,02,07,16,49,10.80
2015,02,07,16,50,10.80
2015,02,07,16,51,10.80
2015,02,07,16,52,10.80
2015,02,07,16,53,10.80
2015,02,07,16,54,10.80
2015,02,07,16,55,10.80
2015,02,07,16,56,10.80
2015,02,07,16,57,10.80
2015,02,07,16,58,10.90
2015,02,07,16,59,10.90
2015,02,07,17,00,10.90
2015,02,07,17,01,10.90
2015,02,07,17,02,10.90
2015,02,07,17,03,10.90
2015,02,07,17,04,10.90
2015,02,07,17,05,10.90
2015,02,07,17,06,10.90
2015,02,07,17,07,11.00
2015,02,07,17,08,11.00
2015,02,07,17,09,11.00
2015,02,07,17,10,11.10
2015,02,07,17,11,11.10
2015,02,07,17,12,11.10
2015,02,07,17,13,11.10
2015,02,07,17,14,11.20
2015,02,07,17,15,11.20
2015,02,07,17,16,11.30
2015,02,07,17,17,11.30
2015,02,07,17,18,11.40
2015,02,07,17,19,11.40
2015,02,07,17,20,11.40
2015,02,07,17,21,11.50
2015,02,07,17,22,11.50
2015,02,07,17,23,11.50
2015,02,07,17,24,11.50
2015,02,07,17,25,11.50
2015,02,07,17,26,11.50
2015,02,07,17,27,11.50
2015,02,07,17,28,11.40
2015,02,07,17,29,11.40
2015,02,07,17,30,11.40
2015,02,07,17,31,11.40
2015,02,07,17,32,11.40
2015,02,07,17,33,11.30
2015,02,07,17,34,11.30
2015,02,07,17,35,11.30
2015,02,07,17,36,11.20
2015,02,07,17,37,11.20
2015,02,07,17,38,11.10
2015,02,07,17,39,11.10
2015,02,07,17,40,11.00
2015,02,07,17,41,11.00
2015,02,07,17,42,10.90
2015,02,07,17,43,10.90
2015,02,07,17,44,10.80
2015,02,07,17,45,10.80
2015,02,07,17,46,10.80
2015,02,07,17,47,10.70
2015,02,07,17,48,10.70
2015,02,07,17,49,10.70
2015,02,07,17,50,10.60
2015,02,07,17,51,10.60
2015,02,07,17,52,10.60
2015,02,07,17,53,10.60
2015,02,07,17,54,10.50
2015,02,07,17,55,10.50
2015,02,07,17,56,10.50
2015,02,07,17,57,10.40
2015,02,07,17,58,10.40
2015,02,07,17,59,10.40
2015,02,07,18,00,10.40
2015,02,07,18,01,10.40
2015,02,07,18,02,10.40
2015,02,07,18,03,10.40
2015,02,07,18,04,10.40
2015,02,07,18,05,10.40
2015,02,07,18,06,10.30
2015,02,07,18,07,10.30
2015,02,07,18,08,10.30
2015,02,07,18,09,10.30
2015,02,07,18,10,10.30
2015,02,07,18,11,10.30
2015,02,07,18,12,10.30
2015,02,07,18,13,10.30
2015,02,07,18,14,10.30
2015,02,07,18,15,10.30
2015,02,07,18,16,10.30
2015,02,07,18,17,10.30
2015,02,07,18,18,10.30
2015,02,07,18,19,10.30
2015,02,07,18,20,10.30
2015,02,07,18,21,10.30
2015,02,07,18,22,10.30
2015,02,07,18,23,10.30
2015,02,07,18,24,10.30
2015,02,07,18,25,10.30
2015,02,07,18,26,10.30
2015,02,07,18,27,10.30
2015,02,07,18,28,10.30
2015,02,07,18,29,10.30
2015,02,07,18,30,10.30
2015,02,07,18,31,10.30
2015,02,07,18,32,10.30
2015,02,07,18,33,10.30
2015,02,07,18,34,10.30
2015,02,07,18,35,10.30
2015,02,07,18,36,10.20
2015,02,07,18,37,10.20
2015,02,07,18,38,10.20
2015,02,07,18,39,10.20
2015,02,07,18,40,10.20
2015,02,07,18,41,10.20
2015,02,07,18,42,10.20
2015,02,07,18,43,10.20
2015,02,07,18,44,10.20
2015,02,07,18,45,10.20
2015,02,07,18,46,10.20
2015,02,07,18,47,10.20
2015,02,07,18,48,10.20
2015,02,07,18,49,10.20
2015,02,07,18,50,10.20
2015,02,07,18,51,10.20
2015,02,07,18,52,10.20
2015,02,07,18,53,10.20
2015,02,07,18,54,10.20
2015,02,07,18,55,10.20
2015,02,07,18,56,10.20
2015,02,07,18,57,10.20
